TimeEST,TemperatureF,Dew PointF,Humidity,Sea Level PressureIn,VisibilityMPH,Wind Direction,Wind SpeedMPH,Gust SpeedMPH,PrecipitationIn,Events,Conditions,WindDirDegrees,DateUTC
12:01 AM,50.0,48.9,96,29.95,1.8,Calm,Calm,-,0.01,Rain,Rain,0,2013-01-02 05:01:00
12:09 AM,50.0,50.0,100,29.95,2.0,Calm,Calm,-,0.02,Rain,Rain,0,2013-01-02 05:09:00
12:44 AM,50.0,50.0,100,29.93,3.0,Calm,Calm,-,0.06,Rain,Light Rain,0,2013-01-02 05:44:00
12:54 AM,50.0,48.9,96,29.94,4.0,North,3.5,-,0.07,Rain,Light Rain,360,2013-01-02 05:54:00
1:05 AM,50.0,48.9,96,29.92,3.0,Calm,Calm,-,0.01,Rain,Rain,0,2013-01-02 06:05:00
1:43 AM,50.0,48.9,96,29.94,2.5,Calm,Calm,-,0.04,Rain,Light Rain,0,2013-01-02 06:43:00
1:54 AM,50.0,50.0,100,29.94,4.0,Calm,Calm,-,0.04,Rain,Light Rain,0,2013-01-02 06:54:00
2:04 AM,50.0,48.9,96,29.94,5.0,North,3.5,-,0.01,Rain,Light Rain,360,2013-01-02 07:04:00
2:14 AM,50.0,48.9,96,29.94,3.0,Calm,Calm,-,0.02,Rain,Light Rain,0,2013-01-02 07:14:00
2:37 AM,48.9,48.9,100,29.92,5.0,ESE,3.5,-,0.02,Rain,Light Rain,120,2013-01-02 07:37:00
2:54 AM,48.9,48.9,100,29.90,4.0,SE,4.6,-,0.03,Rain,Light Rain,130,2013-01-02 07:54:00
3:02 AM,48.9,48.9,100,29.90,3.0,Variable,3.5,-,0.00,Rain,Light Rain,0,2013-01-02 08:02:00
3:11 AM,48.9,48.9,100,29.93,6.0,North,5.8,-,0.00,Rain,Light Rain,350,2013-01-02 08:11:00
3:18 AM,48.9,48.9,100,29.92,7.0,NNE,3.5,-,0.00,Rain,Light Rain,20,2013-01-02 08:18:00
3:54 AM,50.0,48.9,96,29.94,8.0,North,3.5,-,0.00,,Overcast,360,2013-01-02 08:54:00
4:02 AM,50.0,48.9,96,29.94,7.0,NNW,3.5,-,N/A,,Overcast,340,2013-01-02 09:02:00
4:38 AM,50.0,48.9,96,29.94,4.0,Calm,Calm,-,0.00,,Overcast,0,2013-01-02 09:38:00
4:54 AM,50.0,48.9,96,29.94,3.0,Calm,Calm,-,0.00,Rain,Light Rain,0,2013-01-02 09:54:00
5:13 AM,48.9,48.9,100,29.95,2.5,North,3.5,-,0.01,Rain,Light Rain,10,2013-01-02 10:13:00
5:24 AM,48.9,48.9,100,29.95,2.0,NNE,3.5,-,0.01,Rain,Light Rain,30,2013-01-02 10:24:00
5:31 AM,48.9,48.9,100,29.95,1.8,NNE,3.5,-,0.01,Rain,Light Rain,20,2013-01-02 10:31:00
5:37 AM,48.9,48.9,100,29.95,2.0,Calm,Calm,-,0.01,Rain,Light Rain,0,2013-01-02 10:37:00
5:44 AM,50.0,48.9,96,29.96,3.0,North,3.5,-,0.02,Rain,Light Rain,10,2013-01-02 10:44:00
5:54 AM,50.0,48.9,96,29.97,3.0,North,4.6,-,0.02,Rain,Light Rain,360,2013-01-02 10:54:00
6:02 AM,50.0,48.9,96,29.97,3.0,North,4.6,-,0.00,Rain,Light Rain,10,2013-01-02 11:02:00
6:20 AM,50.0,48.9,96,29.97,2.5,NNE,5.8,-,0.00,Rain,Light Rain,20,2013-01-02 11:20:00
6:35 AM,50.0,50.0,100,29.96,3.0,Calm,Calm,-,0.01,Rain,Light Rain,0,2013-01-02 11:35:00
6:47 AM,50.0,50.0,100,29.98,7.0,Calm,Calm,-,0.01,,Overcast,0,2013-01-02 11:47:00
6:54 AM,48.9,48.9,100,29.98,8.0,North,4.6,-,0.01,,Overcast,360,2013-01-02 11:54:00
7:03 AM,50.0,48.9,96,29.98,7.0,North,4.6,-,N/A,,Overcast,360,2013-01-02 12:03:00
7:54 AM,50.0,48.9,96,30.01,4.0,NNE,4.6,-,N/A,,Overcast,30,2013-01-02 12:54:00
8:13 AM,50.0,48.9,96,30.01,6.0,NE,4.6,-,N/A,,Overcast,40,2013-01-02 13:13:00
8:37 AM,50.0,48.9,96,30.02,7.0,NNE,4.6,-,N/A,,Overcast,20,2013-01-02 13:37:00
8:54 AM,50.0,48.9,96,30.02,7.0,ENE,3.5,-,N/A,,Overcast,60,2013-01-02 13:54:00
9:37 AM,50.0,48.9,96,30.05,7.0,Variable,3.5,-,N/A,,Overcast,0,2013-01-02 14:37:00
9:44 AM,50.0,48.9,96,30.05,8.0,East,4.6,-,N/A,,Overcast,100,2013-01-02 14:44:00
9:54 AM,51.1,48.9,92,30.05,8.0,East,3.5,-,N/A,,Overcast,80,2013-01-02 14:54:00
10:09 AM,51.1,48.9,92,30.07,8.0,NE,3.5,-,N/A,,Overcast,40,2013-01-02 15:09:00
11:46 AM,48.9,46.0,90,30.05,10.0,ENE,9.2,-,N/A,,Overcast,70,2013-01-02 16:46:00
11:54 AM,48.9,46.0,90,30.06,10.0,ENE,5.8,-,N/A,,Overcast,70,2013-01-02 16:54:00
12:14 PM,48.9,45.0,86,30.06,10.0,Variable,3.5,-,N/A,,Overcast,0,2013-01-02 17:14:00
12:54 PM,48.0,44.1,86,30.06,10.0,East,4.6,-,N/A,,Overcast,80,2013-01-02 17:54:00
1:54 PM,48.0,43.0,83,30.05,10.0,ENE,5.8,-,N/A,,Overcast,70,2013-01-02 18:54:00
2:54 PM,48.0,41.0,77,30.06,10.0,ENE,6.9,-,N/A,,Overcast,70,2013-01-02 19:54:00
3:10 PM,48.9,42.1,77,30.06,10.0,Variable,4.6,-,N/A,,Overcast,0,2013-01-02 20:10:00
3:34 PM,48.0,41.0,77,30.07,10.0,East,4.6,-,N/A,,Overcast,100,2013-01-02 20:34:00
3:54 PM,48.9,41.0,74,30.07,10.0,Variable,3.5,-,N/A,,Overcast,0,2013-01-02 20:54:00
5:54 PM,46.9,41.0,80,30.09,10.0,ESE,5.8,-,N/A,,Overcast,120,2013-01-02 22:54:00
6:54 PM,46.9,41.0,80,30.14,10.0,Calm,Calm,-,N/A,,Overcast,0,2013-01-02 23:54:00
7:54 PM,46.9,41.0,80,30.13,10.0,Calm,Calm,-,N/A,,Overcast,0,2013-01-03 00:54:00
8:54 PM,46.0,39.9,79,30.13,10.0,East,4.6,-,N/A,,Overcast,100,2013-01-03 01:54:00
9:54 PM,46.0,39.9,79,30.16,10.0,ESE,3.5,-,N/A,,Overcast,110,2013-01-03 02:54:00
10:54 PM,46.0,39.9,79,30.16,10.0,Calm,Calm,-,N/A,,Overcast,0,2013-01-03 03:54:00
11:54 PM,46.0,39.9,79,30.14,10.0,East,3.5,-,N/A,,Overcast,80,2013-01-03 04:54:00